Weather in Kuz'mino

Russia / Bryansk Oblast     53°15′50″N   34°16′40″E
temp.,
°C
wind,
m/s
gust,
m/s
humid.,
%
clouds,
%
prec.,
mm/h
press.,
hPa
HPBL,
m
13 may, thu
thu1300:00+6ese399616 0.1 1015228
03:00+7e3109540 0.1 1014324
06:00+6e41296100 0.0 1014438
09:00+10se588395 0.2 1014893
12:00+12se597580 1.2 10131108
15:00+14sse696387 2.3 10131734
18:00+14s5866100 0.3 10121125
21:00+9sse358387 0.3 101489
14 may, fri
fri1400:00+7se359099 0.0 101477
03:00+7se3893100 0.0 1014135
06:00+9ese3982100 0.0 1013223
09:00+14ese5107598 0.0 1012339
12:00+19se696687 0.1 10111060
15:00+20sse686789 1.3 10091243
18:00+19sse5877100 1.6 1007747
21:00+15sse4109215 3.8 1007217
15 may, sat
sat1500:00+13sse369549 0.4 1007105
03:00+12sse37955 0.4 1007143
06:00+12s41095100 0.0 1008380
09:00+15ssw698081 0.0 1009651
12:00+19sw576216 0.0 10101442
15:00+20sw575369 0.7 10102032
18:00+18ssw4773100 0.9 1010909
21:00+13s369199 3.2 1010108
16 may, sun
sun1600:00+11ssw49962 0.3 1011271
03:00+9ssw38975 0.3 1013207
06:00+10ssw25952 0.0 1014141
09:00+15sw34770 0.0 1014440
12:00+19sw33590 0.0 10141194
15:00+22sw23509 0.0 10141721
18:00+19se2367100 0.1 101386
21:00+15se2283100 0.1 101318
17 may, mon
mon1700:00+13e339010 0.0 101343
03:00+12ene399157 0.0 1013165
06:00+13ene41389100 0.0 1011312
09:00+20e61169100 0.0 1010553
12:00+24ese7105597 0.0 1008957
15:00+26se713505 0.0 10072269
18:00+24ese7136218 0.0 10061103
21:00+20ese716725 0.0 1005625